Location: Cointrin
(46.2167°N, 6.1167°E)
Time: 05:10:20
(UTC+00:00)

Lacrosse 5 - Pass Details

Date: 08 February 2023
Orbit: 714 x 724 km, 57.0° (Epoch: 09 March)

Event Time Altitude Azimuth Distance (km) Brightness Sun altitude
Rises 17:26:05 0° 252° (WSW) 3,129 7.9 -6.7°
Reaches altitude 10° 17:28:34 10° 259° (W) 2,212 6.2 -7.1°
Maximum altitude 17:33:27 45° 332° (NNW) 990 2.7 -8.0°
Drops below altitude 10° 17:38:21 10° 45° (NE) 2,222 3.9 -8.8°
Enters shadow 17:39:02 - 47° (NE) 2,464 4.1 -8.9°
